Zurück zum Katalog

STARLINK-31052

AktivKommunikationVLEO
NORAD 58600·PAYLOAD·🇺🇸 United States

Gestartet Dec 19, 2023 von Cape Canaveral Space Force Station

Loading…

Nächste Überflüge (nächste 24 Stunden)

TLE

AktuellSource: CelesTrak SupGP

Epoche: Sep 14, 2026, 14:17 UTC

1 58600C 23200M   26257.59562500 -.00024943  00000+0 -90380-3 0  2573
2 58600  43.0028 181.7448 0001570 263.6647 134.9117 15.27577819    17

Verfolge STARLINK-31052 in Echtzeit mit AllMySat

Download on the App Store